Hourly Data Report for October 13, 2015

All times are specified in Local Standard Time (LST). Add 1 hour to adjust for Daylight Saving Time where and when it is observed.

HALL BEACH A
NUNAVUT

68°46'33.000" N
81°14'33.000" W
9.10 m
2402354
71293
YUX

Download Data

Hourly Data (October 2015)
Hourly Data Report for October 13, 2015
Temp Definition
°C
Dew Point Temp Definition
°C
Rel Hum Definition
%
Wind Dir Definition
10's deg

Wind Spd Definition
km/h
Visibility Definition
km
Stn Press Definition
kPa
Hmdx Definition


Wind Chill Definition


Weather Definition


TIME
00:00 Legend Double Dagger -4.5 -5.2 95 31 17 8.1 99.57   -10 Snow
01:00 Legend Double Dagger -7.6 -8.3 95 30 21 16.1 99.55   -15 Snow
02:00 Legend Double Dagger -7.6 -8.3 95 30 18 16.1 99.54   -14 Snow
03:00 Legend Double Dagger -5.5 -6.2 95 31 17 16.1 99.51   -12 Snow
04:00 Legend Double Dagger -4.8 -5.3 96 31 17 6.4 99.48   -11 Snow
05:00 Legend Double Dagger -5.0 -5.7 95 31 21 16.1 99.45   -12 Snow
06:00 Legend Double Dagger -4.8 -5.5 95 31 21 16.1 99.45   -11 Snow
07:00 Legend Double Dagger -5.4 -6.1 95 31 22 16.1 99.45   -12 Snow
08:00 Legend Double Dagger -6.7 -7.4 95 31 21 16.1 99.43   -14 LegendNANA
09:00 Legend Double Dagger -7.6 -8.4 94 31 24 16.1 99.44   -16 Snow
10:00 Legend Double Dagger -6.0 -6.8 94 31 22 16.1 99.44   -13 LegendNANA
11:00 Legend Double Dagger -4.5 -5.5 93 32 26 16.1 99.44   -12 Snow
12:00 Legend Double Dagger -4.5 -5.6 92 32 30 16.1 99.42   -12 LegendNANA
13:00 Legend Double Dagger -4.8 -6.1 91 31 32 16.1 99.41   -13 LegendNANA
14:00 Legend Double Dagger -4.7 -6.0 91 32 30 16.1 99.43   -13 LegendNANA
15:00 Legend Double Dagger -4.6 -5.7 92 31 30 16.1 99.42   -12 LegendNANA
16:00 Legend Double Dagger -4.5 -5.5 93 32 30 16.1 99.44   -12 LegendNANA
17:00 Legend Double Dagger -4.6 -5.6 93 32 28 16.1 99.46   -12 LegendNANA
18:00 Legend Double Dagger -4.2 -5.0 94 32 32 16.1 99.46   -12 Snow
19:00 Legend Double Dagger -3.9 -4.6 95 32 32 3.6 99.45   -12 Snow
20:00 Legend Double Dagger -4.1 -4.8 95 32 32 3.6 99.45   -12 Snow
21:00 Legend Double Dagger -3.8 -4.5 95 33 32 4.0 99.44   -12 Snow
22:00 Legend Double Dagger -4.4 -5.1 95 32 30 4.8 99.43   -12 Snow
23:00 Legend Double Dagger -5.4 -6.1 95 31 24 4.8 99.44   -13 Snow

Notes on Data Quality.

Legend

  • E = Estimated
  • M = Missing
  • NA = Not Available
  • ‡ = Partner data that is not subject to review by the National Climate Archives
Date modified: